TimeEDT,TemperatureF,Dew PointF,Humidity,Sea Level PressureIn,VisibilityMPH,Wind Direction,Wind SpeedMPH,Gust SpeedMPH,PrecipitationIn,Events,Conditions,WindDirDegrees,DateUTC
12:54 AM,46.0,42.1,86,30.31,10.0,ESE,3.5,-,N/A,,Clear,110,2013-09-18 04:54:00
1:54 AM,46.0,42.1,86,30.31,10.0,ESE,3.5,-,N/A,,Clear,110,2013-09-18 05:54:00
2:54 AM,45.0,41.0,86,30.30,10.0,East,4.6,-,N/A,,Clear,90,2013-09-18 06:54:00
3:54 AM,45.0,41.0,86,30.29,10.0,ENE,3.5,-,N/A,,Clear,70,2013-09-18 07:54:00
4:54 AM,42.1,39.9,92,30.29,10.0,East,5.8,-,N/A,,Clear,100,2013-09-18 08:54:00
5:54 AM,42.1,39.9,92,30.29,10.0,East,3.5,-,N/A,,Clear,80,2013-09-18 09:54:00
6:54 AM,41.0,39.0,93,30.30,10.0,East,4.6,-,N/A,,Clear,90,2013-09-18 10:54:00
7:54 AM,45.0,42.1,90,30.30,10.0,East,3.5,-,N/A,,Clear,100,2013-09-18 11:54:00
8:54 AM,53.1,45.0,74,30.29,10.0,ESE,3.5,-,N/A,,Clear,120,2013-09-18 12:54:00
9:54 AM,57.9,46.9,67,30.28,10.0,Calm,Calm,-,N/A,,Clear,0,2013-09-18 13:54:00
10:54 AM,63.0,48.0,58,30.26,10.0,Calm,Calm,-,N/A,,Clear,0,2013-09-18 14:54:00
11:54 AM,66.9,46.0,47,30.24,10.0,SE,4.6,-,N/A,,Clear,140,2013-09-18 15:54:00
12:54 PM,69.1,44.1,40,30.22,10.0,SSW,4.6,-,N/A,,Clear,200,2013-09-18 16:54:00
1:54 PM,71.1,44.1,38,30.19,10.0,South,5.8,-,N/A,,Clear,190,2013-09-18 17:54:00
2:54 PM,72.0,46.0,40,30.17,10.0,South,4.6,-,N/A,,Partly Cloudy,190,2013-09-18 18:54:00
3:54 PM,72.0,46.0,40,30.15,10.0,SSE,3.5,-,N/A,,Scattered Clouds,160,2013-09-18 19:54:00
4:54 PM,73.0,46.0,38,30.13,10.0,SSE,5.8,-,N/A,,Scattered Clouds,160,2013-09-18 20:54:00
5:54 PM,72.0,46.9,41,30.13,10.0,SSW,4.6,-,N/A,,Partly Cloudy,200,2013-09-18 21:54:00
6:54 PM,66.9,52.0,59,30.13,10.0,Calm,Calm,-,N/A,,Scattered Clouds,0,2013-09-18 22:54:00
7:54 PM,60.1,52.0,75,30.14,10.0,Calm,Calm,-,N/A,,Scattered Clouds,0,2013-09-18 23:54:00
8:54 PM,57.0,51.1,81,30.13,10.0,ESE,5.8,-,N/A,,Partly Cloudy,110,2013-09-19 00:54:00
9:54 PM,55.9,50.0,80,30.13,10.0,ESE,3.5,-,N/A,,Partly Cloudy,110,2013-09-19 01:54:00
10:54 PM,55.0,48.9,80,30.13,10.0,ESE,3.5,-,N/A,,Clear,120,2013-09-19 02:54:00
11:54 PM,53.1,48.0,83,30.13,10.0,Calm,Calm,-,N/A,,Clear,0,2013-09-19 03:54:00